Location: *
(41.7492°S, 135.4150°W)
Time: 18:29:37
(UTC+00:00)

Cosmos 1602 - Pass Details

Date: 20 September 2021
Orbit: 513 x 531 km, 82.5° (Epoch: 15 October)

Event Time Altitude Azimuth Distance (km) Brightness Sun altitude
Exits shadow 13:14:28 14° 358° (N) 1,544 5.9 -19.1°
Maximum altitude 13:17:48 78° 83° (E) 548 3.8 -18.5°
Drops below altitude 10° 13:21:44 10° 169° (S) 1,789 6.8 -17.8°
Sets 13:23:53 0° 170° (S) 2,684 7.7 -17.4°
